Regional Weather Roundup
Issued by NWS Mt. Holly, NJ

Home | Current Version | Previous Version | Text Only | Print | Product List | Glossary On
Versions: 1 2 3 4 5 6 7 8 9 10 11 12 13 14 15 16 17 18 19 20 21 22 23 24 25 26 27 28 29 30 31 32 33 34 35 36 37 38 39 40 41 42 43 44 45 46 47 48 49 50
000
ASUS41 KPHI 290711
RWRPHI

REGIONAL WEATHER ROUNDUP
NATIONAL WEATHER SERVICE MOUNT HOLLY NJ
300 AM EDT WED MAR 29 2017

NOTE:  "FAIR" INDICATES FEW OR NO CLOUDS BELOW 12,000 FEET WITH NO
SIGNIFICANT WEATHER AND/OR OBSTRUCTIONS TO VISIBILITY.

 * = STATION DOES NOT REPORT PRECIPITATION (E.G. RAIN, SNOW, ETC.)
        OR FOG.

NJZ015>026-290800-
SOUTHERN NEW JERSEY

CITY           SKY/WX    TMP DP  RH WIND       PRES   REMARKS
POMONA         CLOUDY    46  43  89 N6        29.95R
WILDWOOD*      CLOUDY    48  46  93 N6        29.96R
MILLVILLE      CLEAR     44  44 100 N3        29.95R
WRIGHTSTOWN    MOCLDY    43  41  93 W3        29.93R
MOUNT HOLLY    CLOUDY    46  45  96 CALM      29.96R FOG
TRENTON        CLOUDY    45  45 100 NW6       29.95R

$$
NJZ001>014-290800-
NORTHERN NEW JERSEY

CITY           SKY/WX    TMP DP  RH WIND       PRES   REMARKS
SUSSEX         CLOUDY    48  42  80 VRB5      29.97R
ANDOVER*         N/A     47  42  83 N3        29.97R
MORRISTOWN     CLOUDY    43  43 100 CALM      29.96R FOG
NEWARK         CLOUDY    46  44  93 N5        29.95R
TETERBORO      CLOUDY    46  44  93 N5        29.95R
CALDWELL       CLOUDY    44  43  96 CALM      29.96R FOG
SOMERVILLE     CLOUDY    47  44  90 N7        29.94R
ALLAIRE*       CLOUDY    43  43 100 W6        29.95R FOG
TOMS RIVER*    CLOUDY    44  43  96 NW3       29.96R

$$
PAZ043-044-047-054-055-060>062-066>071-290800-
EASTERN PENNSYLVANIA

CITY           SKY/WX    TMP DP  RH WIND       PRES   REMARKS
PHILADELPHIA   CLOUDY    48  46  93 N6        29.96S
NORTH PHILA    MOCLDY    47  46  97 W5        29.97R
BLUE BELL*     MOCLDY    46  45  93 NW5       29.96R
DOYLESTOWN     PTCLDY    46  46 100 N6        29.96R
QUAKERTOWN*    MOCLDY    46  45  93 N7        29.99R
PERKASIE*      CLOUDY    46  46 100 NW9       29.97S
POTTSTOWN      CLEAR     46  43  89 N9        29.99R
LANCASTER      PTCLDY    50  45  83 N13       30.00R
COATESVILLE    PTCLDY    48  46  93 NW8       29.99R
READING        CLOUDY    50  46  86 N7        29.99R
ALLENTOWN      MOCLDY    48  40  73 NW12      29.99R
MOUNT POCONO   CLOUDY    38  38 100 NW20G32   29.95R WCI  28
HAZLETON       CLOUDY    41  37  87 NW15      30.04R
LEHIGHTON      CLOUDY    46  41  81 N5        30.02R
WILKES BARRE   CLOUDY    43  39  86 N16       30.04R

$$
DEZALL-MDZ008-012-015-019-020-290800-
DELAWARE AND EASTERN MARYLAND

CITY           SKY/WX    TMP DP  RH WIND       PRES   REMARKS
WILMINGTON     MOCLDY    48  47  96 NW6       29.98R
DOVER          MOCLDY    49  49 100 NW5       29.95R
GEORGETOWN     CLOUDY    52  48  86 N7        29.95R
EASTON         MOCLDY    55  51  87 N3        30.00R
ABERDEEN       CLOUDY    55  51  87 CALM      29.98R
PATUXENT       MOCLDY    56  54  93 N7        29.97R
OCEAN CITY     MOCLDY    52  47  83 N9        29.95R
WALLOPS ISLAND PTCLDY    55  52  89 N13       29.94R
CAMBRIDGE      CLEAR     54  52  94 N6        29.96R
SALISBURY      CLEAR     52  52 100 N6        29.94S

$$
PAZ001-021-NYZ056-072-MDZ011-DCZ001-290800-
OTHER NEARBY LOCATIONS

CITY           SKY/WX    TMP DP  RH WIND       PRES   REMARKS
HARRISBURG     MOCLDY    52  45  77 N14       30.01R
STATE COLLEGE  CLOUDY    46  41  82 N13       30.07R
WILLIAMSPORT   CLOUDY    46  37  71 N6        30.09R
BINGHAMTON     CLOUDY    35  31  85 N14G24    30.06R WCI  26
NEW YORK CITY  CLOUDY    46  43  89 VRB3      29.98R
BALTIMORE      MOCLDY    59  52  77 N8        29.98R
WASHINGTON DC  CLOUDY    59  56  89 NW8       29.99R

$$



USA.gov is the U.S. government's official web portal to all federal, state and local government web resources and services.